sat.trackr.live / text

‹ back to catalog

HAWK-3A

NORAD 48957 · 2021-059CG

PAYLOAD ACTIVE UNKNOWN

§ Identity

Operator
Country
US
Launch date
2021-06-30
Launch site
AFETR
Launch vehicle
Mass (kg)
RCS (m²)

Purposes: tech_demo

External: N2YO · Heavens-Above · Gunter

§ Orbital elements

Epoch: 2026-05-25T02:27:25.258752Z

Period
91.87 min
Inclination
97.6754°
Eccentricity
0.0005631
Mean motion
15.67470607 rev/d
Perigee alt
362.3 km
Apogee alt
369.9 km
Semi-major
6,744.3 km
B*
3.4856e-4
RAAN
342.5324°
Arg perigee
66.0434°
Mean anomaly
294.1415°
Rev number
27,423

§ Raw data

HAWK-3A1 48957U 21059CG  26145.10237568  .00037731  00000+0  34856-3 0  99992 48957  97.6754 342.5324 0005631  66.0434 294.1415 15.67470607274231

JSON: /api/v1/satellites/48957 · /tle

For live sub-satellite position, see the globe view (requires WebGL).

§ Visibility from observer

Set your observer location to see the next 7 days of passes ≥ 10°. The values pass through the URL so the page stays shareable.

No JS? Fill the form by hand. The geolocation button needs JavaScript.